| time (UTC) | temp F | wind direction | speed knots | gust knots | rain 1hr in | rain 24hr in | rain mn in | humidity % | barometer mb |
| 20260510113043 | 53 | 44 | 8.7 | 16.5 | 0.00 | 0.00 | 0.00 | 71 | 1016.2 |
| 20260510111548 | 53 | 37 | 11.3 | 19.1 | 0.00 | 0.00 | 0.00 | 69 | 1016.2 |
| 20260510110043 | 53 | 23 | 9.6 | 16.5 | 0.00 | 0.00 | 0.00 | 71 | 1016.3 |
| 20260510104547 | 53 | 30 | 11.3 | 20.9 | 0.00 | 0.00 | 0.00 | 71 | 1016.5 |
| 20260510103044 | 54 | 65 | 12.2 | 19.1 | 0.00 | 0.00 | 0.00 | 71 | 1016.4 |
| 20260510101545 | 54 | 40 | 7.0 | 20.0 | 0.00 | 0.00 | 0.00 | 71 | 1016.4 |
| 20260510100048 | 54 | 53 | 8.7 | 15.6 | 0.00 | 0.00 | 0.00 | 71 | 1016.5 |
| 20260510094548 | 54 | 29 | 10.4 | 19.1 | 0.00 | 0.00 | 0.00 | 71 | 1016.4 |
| 20260510093102 | 54 | 29 | 12.2 | 20.9 | 0.00 | 0.00 | 0.00 | 70 | 1016.4 |
| 20260510091547 | 54 | 50 | 7.0 | 18.2 | 0.00 | 0.00 | 0.00 | 72 | 1016.5 |
| 20260510090048 | 53 | 36 | 8.7 | 16.5 | 0.00 | 0.00 | 0.00 | 73 | 1016.5 |
| 20260510084544 | 53 | 43 | 9.6 | 19.1 | 0.00 | 0.00 | 0.00 | 73 | 1016.7 |
| 20260510083043 | 53 | 55 | 10.4 | 20.0 | 0.00 | 0.00 | 0.00 | 75 | 1016.8 |
| 20260510081549 | 53 | 6 | 9.6 | 16.5 | 0.00 | 0.00 | 0.00 | 77 | 1016.8 |
| 20260510080042 | 52 | 48 | 9.6 | 17.4 | 0.00 | 0.00 | 0.00 | 78 | 1016.9 |
| 20260510074549 | 52 | 30 | 10.4 | 18.2 | 0.00 | 0.00 | 0.00 | 79 | 1017.0 |
| 20260510073050 | 51 | 55 | 10.4 | 20.0 | 0.00 | 0.00 | 0.00 | 80 | 1017.0 |
| 20260510071552 | 51 | 77 | 9.6 | 17.4 | 0.00 | 0.00 | 0.00 | 80 | 1017.0 |
| 20260510070044 | 51 | 52 | 7.8 | 12.2 | 0.00 | 0.00 | 0.00 | 82 | 1016.9 |
| 20260510064539 | 50 | 58 | 8.7 | 15.6 | 0.00 | 0.00 | 0.00 | 82 | 1016.9 |
| 20260510063039 | 50 | 30 | 7.8 | 15.6 | 0.00 | 0.00 | 0.00 | 83 | 1016.8 |
| 20260510061552 | 50 | 29 | 9.6 | 14.8 | 0.00 | 0.00 | 0.00 | 85 | 1016.8 |
| 20260510060048 | 49 | 39 | 6.1 | 11.3 | 0.00 | 0.00 | 0.00 | 86 | 1016.8 |
| 20260510054546 | 49 | 32 | 3.5 | 12.2 | 0.00 | 0.00 | 0.00 | 87 | 1016.7 |
| 20260510053058 | 49 | 21 | 5.2 | 13.9 | 0.00 | 0.00 | 0.00 | 88 | 1016.6 |
| 20260510051548 | 48 | 49 | 6.1 | 12.2 | 0.00 | 0.00 | 0.00 | 88 | 1016.5 |
| 20260510050043 | 48 | 40 | 5.2 | 12.2 | 0.00 | 0.00 | 0.00 | 89 | 1016.6 |
| 20260510044551 | 48 | 27 | 3.5 | 11.3 | 0.00 | 0.00 | 0.00 | 89 | 1016.8 |
| 20260510043053 | 48 | 15 | 2.6 | 9.6 | 0.00 | 0.00 | 0.00 | 89 | 1016.8 |
| 20260510041546 | 48 | 335 | 3.5 | 7.8 | 0.00 | 0.00 | 0.00 | 89 | 1016.8 |
| 20260510040046 | 48 | 23 | 3.5 | 9.6 | 0.00 | 0.00 | 0.00 | 90 | 1016.7 |
| 20260510034547 | 48 | 33 | 3.5 | 8.7 | 0.00 | 0.00 | 0.00 | 90 | 1017.0 |
| 20260510033100 | 48 | 42 | 2.6 | 8.7 | 0.00 | 0.00 | 0.00 | 90 | 1016.9 |
| 20260510031552 | 48 | 330 | 2.6 | 8.7 | 0.00 | 0.00 | 0.00 | 90 | 1017.2 |
| 20260510030051 | 47 | 24 | 1.7 | 8.7 | 0.00 | 0.00 | 0.00 | 90 | 1017.1 |
| 20260510024548 | 47 | 21 | 4.3 | 10.4 | 0.00 | 0.00 | 0.00 | 89 | 1016.8 |
| 20260510023048 | 47 | 359 | 4.3 | 9.6 | 0.00 | 0.00 | 0.00 | 89 | 1017.1 |
| 20260510021550 | 47 | 30 | 2.6 | 9.6 | 0.00 | 0.00 | 0.00 | 89 | 1017.0 |
| 20260510020050 | 47 | 21 | 2.6 | 7.8 | 0.00 | 0.00 | 0.00 | 89 | 1017.2 |
| 20260510014550 | 47 | 13 | 3.5 | 7.8 | 0.00 | 0.00 | 0.00 | 88 | 1017.1 |
| 20260510013050 | 48 | 33 | 4.3 | 8.7 | 0.00 | 0.00 | 0.00 | 88 | 1017.1 |
| 20260510011552 | 48 | 41 | 4.3 | 8.7 | 0.00 | 0.00 | 0.00 | 87 | 1017.1 |
| 20260510010043 | 48 | 46 | 3.5 | 8.7 | 0.00 | 0.00 | 0.00 | 86 | 1017.2 |
| 20260510004551 | 49 | 24 | 3.5 | 8.7 | 0.00 | 0.00 | 0.00 | 85 | 1017.1 |
| 20260510003046 | 49 | 347 | 3.5 | 7.0 | 0.00 | 0.00 | 0.00 | 85 | 1017.4 |
| 20260510001549 | 49 | 15 | 3.5 | 6.1 | 0.00 | 0.00 | 0.00 | 84 | 1017.4 |
| 20260510000057 | 50 | 6 | 2.6 | 7.8 | 0.00 | 0.00 | 0.00 | 83 | 1017.3 |
| 20260509234545 | 50 | 37 | 4.3 | 7.8 | 0.00 | 0.00 | 0.00 | 82 | 1017.2 |
| 20260509233041 | 51 | 13 | 3.5 | 9.6 | 0.00 | 0.00 | 0.00 | 81 | 1017.4 |
| 20260509231548 | 51 | 16 | 4.3 | 7.8 | 0.00 | 0.00 | 0.00 | 80 | 1017.4 |
| 20260509230054 | 51 | 29 | 4.3 | 8.7 | 0.00 | 0.00 | 0.00 | 80 | 1017.4 |
| 20260509224545 | 52 | 37 | 4.3 | 8.7 | 0.00 | 0.00 | 0.00 | 78 | 1017.3 |
| 20260509223044 | 52 | 18 | 2.6 | 7.0 | 0.00 | 0.00 | 0.00 | 76 | 1017.4 |
| 20260509221546 | 52 | 23 | 3.5 | 8.7 | 0.00 | 0.00 | 0.00 | 76 | 1017.4 |
| 20260509220052 | 53 | 34 | 4.3 | 9.6 | 0.00 | 0.00 | 0.00 | 75 | 1017.4 |
| 20260509214559 | 53 | 31 | 4.3 | 8.7 | 0.00 | 0.00 | 0.00 | 73 | 1017.2 |
| 20260509213048 | 53 | 15 | 2.6 | 6.1 | 0.00 | 0.00 | 0.00 | 71 | 1017.3 |
| 20260509211547 | 54 | 53 | 5.2 | 10.4 | 0.00 | 0.00 | 0.00 | 70 | 1017.1 |
| 20260509210045 | 54 | 18 | 5.2 | 10.4 | 0.00 | 0.00 | 0.00 | 71 | 1016.8 |
| 20260509204546 | 55 | 52 | 4.3 | 10.4 | 0.00 | 0.00 | 0.00 | 71 | 1017.1 |
| 20260509203053 | 55 | 57 | 6.1 | 12.2 | 0.00 | 0.00 | 0.00 | 70 | 1016.9 |
| 20260509201541 | 55 | 72 | 7.8 | 14.8 | 0.00 | 0.00 | 0.00 | 69 | 1016.7 |
| 20260509200041 | 56 | 50 | 9.6 | 12.2 | 0.00 | 0.00 | 0.00 | 68 | 1016.8 |
| 20260509194548 | 56 | 54 | 7.8 | 13.0 | 0.00 | 0.00 | 0.00 | 66 | 1016.5 |
| 20260509193046 | 56 | 52 | 8.7 | 13.9 | 0.00 | 0.00 | 0.00 | 64 | 1016.4 |
| 20260509191557 | 57 | 51 | 7.8 | 13.0 | 0.00 | 0.00 | 0.00 | 64 | 1016.5 |
| 20260509190051 | 57 | 63 | 7.8 | 12.2 | 0.00 | 0.00 | 0.00 | 63 | 1016.6 |
| 20260509184555 | 57 | 70 | 8.7 | 14.8 | 0.00 | 0.00 | 0.00 | 59 | 1016.4 |
| 20260509183057 | 58 | 79 | 10.4 | 15.6 | 0.00 | 0.00 | 0.00 | 57 | 1016.6 |
| 20260509181549 | 58 | 47 | 8.7 | 15.6 | 0.00 | 0.00 | 0.00 | 55 | 1016.4 |
| 20260509180049 | 59 | 75 | 11.3 | 16.5 | 0.00 | 0.00 | 0.00 | 53 | 1016.2 |
| 20260509174601 | 59 | 81 | 12.2 | 17.4 | 0.00 | 0.00 | 0.00 | 49 | 1016.2 |
| 20260509173102 | 59 | 60 | 10.4 | 16.5 | 0.00 | 0.00 | 0.00 | 51 | 1016.2 |
| 20260509171547 | 60 | 80 | 10.4 | 18.2 | 0.00 | 0.00 | 0.00 | 51 | 1016.1 |
| 20260509170048 | 59 | 82 | 13.0 | 20.0 | 0.00 | 0.00 | 0.00 | 49 | 1016.2 |
| 20260509164553 | 60 | 87 | 11.3 | 19.1 | 0.00 | 0.00 | 0.00 | 49 | 1016.4 |
| 20260509163048 | 60 | 81 | 13.9 | 18.2 | 0.00 | 0.00 | 0.00 | 50 | 1016.6 |
| 20260509161552 | 60 | 79 | 12.2 | 16.5 | 0.00 | 0.00 | 0.00 | 52 | 1016.8 |
| 20260509160057 | 60 | 63 | 12.2 | 20.0 | 0.00 | 0.00 | 0.00 | 52 | 1016.8 |
| 20260509154552 | 60 | 78 | 13.9 | 18.2 | 0.00 | 0.00 | 0.00 | 51 | 1016.7 |
| 20260509153053 | 61 | 75 | 13.0 | 17.4 | 0.00 | 0.00 | 0.00 | 54 | 1016.8 |
| 20260509151547 | 60 | 70 | 16.5 | 22.6 | 0.00 | 0.00 | 0.00 | 52 | 1016.8 |
| 20260509150041 | 61 | 76 | 14.8 | 20.0 | 0.00 | 0.00 | 0.00 | 51 | 1016.6 |
| 20260509144547 | 61 | 74 | 18.2 | 23.5 | 0.00 | 0.00 | 0.00 | 52 | 1016.2 |
| 20260509143045 | 61 | 65 | 15.6 | 20.0 | 0.00 | 0.00 | 0.00 | 52 | 1016.3 |
| 20260509141544 | 62 | 58 | 13.0 | 22.6 | 0.00 | 0.00 | 0.00 | 51 | 1016.5 |
| 20260509140048 | 62 | 82 | 12.2 | 20.0 | 0.00 | 0.00 | 0.00 | 53 | 1016.5 |
| 20260509134544 | 62 | 75 | 14.8 | 20.0 | 0.00 | 0.00 | 0.00 | 57 | 1016.4 |
| 20260509133046 | 61 | 76 | 15.6 | 21.7 | 0.00 | 0.00 | 0.00 | 54 | 1016.4 |
| 20260509131543 | 62 | 68 | 10.4 | 18.2 | 0.00 | 0.00 | 0.00 | 56 | 1016.5 |
| 20260509130053 | 62 | 89 | 11.3 | 18.2 | 0.00 | 0.00 | 0.00 | 56 | 1016.7 |
| 20260509124554 | 62 | 82 | 11.3 | 19.1 | 0.00 | 0.00 | 0.00 | 54 | 1016.8 |
| 20260509123051 | 62 | 63 | 11.3 | 17.4 | 0.00 | 0.00 | 0.00 | 53 | 1017.1 |
| 20260509121546 | 62 | 55 | 10.4 | 17.4 | 0.00 | 0.00 | 0.00 | 55 | 1017.2 |
| 20260509120049 | 62 | 72 | 10.4 | 20.9 | 0.00 | 0.00 | 0.00 | 55 | 1017.3 |
| 20260509114559 | 62 | 80 | 13.9 | 21.7 | 0.00 | 0.00 | 0.00 | 55 | 1017.3 |